Regional Weather Roundup
Issued by NWS

Home | Current Version | Previous Version | Graphics & Text | Print | Product List | Glossary On
Versions: 1 2 3 4 5 6 7 8 9 10 11 12 13 14 15 16 17 18 19 20 21 22 23 24 25 26 27 28 29 30 31 32 33 34 35 36 37 38 39 40 41 42 43 44 45 46 47 48 49 50
000
ASUS43 KMPX 190801
RWRMN
WEATHER ROUNDUP FOR MINNESOTA
NATIONAL WEATHER SERVICE TWIN CITIES/CHANHASSEN MN
300 AM CDT SAT AUG 19 2017


NOTE: "FAIR" INDICATES FEW OR NO CLOUDS BELOW 12,000 FEET WITH NO
SIGNIFICANT WEATHER AND/OR OBSTRUCTIONS TO VISIBILITY. N/A MEANS
CURRENT SKY AND/OR WEATHER CONDITIONS ARE NOT AVAILABLE.

MNZ060>063-068>070-190900-
   Twin Cities Metro

CITY           SKY/WX    TMP DP  RH WIND       PRES   REMARKS
TWIN CITIES    CLEAR     62  58  86 CALM      29.92S FOG
ST PAUL        CLEAR     60  60 100 CALM      29.92S FOG
CRYSTAL        FOG       57  54  89 CALM      29.90F VSB 1/2
LAKEVILLE      CLEAR     55  55 100 SW3       29.92F FOG
EDEN PRAIRIE     N/A     60  59  96 CALM      29.90F VSB 1/4
SOUTH ST PAUL  CLEAR     58  58  99 CALM      29.92S
LAKE ELMO      FOG       55  55 100 CALM      29.92F VSB 3/4
$$
MNZ001>005-007-008-013>017-022>024-027-028-190900-
   Northwest Minnesota

CITY           SKY/WX    TMP DP  RH WIND       PRES   REMARKS
BEMIDJI        CLEAR     58  56  91 SW5       29.88S
HALLOCK        CLEAR     55  52  88 SE7       29.82F
ROSEAU         CLEAR     55  50  82 S3        29.83S
WARROAD        CLEAR     55  52  88 SW3       29.83F
CROOKSTON      CLEAR     54  54 100 S6        29.86S
FOSSTON        CLEAR     54  52  94 S6        29.88F
DETROIT LAKES  CLEAR     61  59  94 CALM      29.91S
MOORHEAD       CLEAR     57  57 100 S3        29.89R
PARK RAPIDS    PTCLDY    54  52  93 SE6       29.89F FOG
MAHNOMEN       FAIR      55  54  97 S7        29.88F
$$
MNZ006-009>011-018-025>026-190900-
   North Central Minnesota

CITY           SKY/WX    TMP DP  RH WIND       PRES   REMARKS
BAUDETTE       PTCLDY    56  54  93 SW3       29.83S
FLAG ISLAND    PTCLDY    66  52  59 CALM      29.80F
INTL FALLS     CLEAR     56  54  93 CALM      29.83S
WASKISH        PTCLDY    63  61  94 SW5       29.86S
BIG FORK       CLEAR     55  55 100 CALM      29.86F
LONGVILLE      MOCLDY    54  54 100 CALM      29.88F FOG
GRAND RAPIDS   CLEAR     60  57  89 NW5       29.89F
CRANE LAKE     CLEAR     48  48 100 CALM      29.84S
ORR            CLEAR     55  54  94 CALM      29.83S FOG
COOK           CLEAR     55  55 100 CALM      29.86S
WALKER         FAIR      56  55  95 W5        29.88F
$$
MNZ012-019>021-037-190900-
   Northeast Minnesota

CITY           SKY/WX    TMP DP  RH WIND       PRES   REMARKS
DULUTH         CLEAR     57  57 100 W8        29.87S
ELY            CLEAR     57  57 100 CALM      29.84F
HIBBING        PTCLDY    49  49 100 CALM      29.86S FOG
EVELETH        CLEAR     57  55  91 SW3       29.87S FOG
DULUTH HARBOR  CLEAR     61  57  88 SW9       29.86S
SILVER BAY     CLEAR     61  57  88 CALM      29.82S
GRAND MARAIS     N/A     62  59  90 SW7       29.79S
$$
MNZ029>031-032-039>041-046>048-054>057-064-190900-
   West Central Minnesota

CITY           SKY/WX    TMP DP  RH WIND       PRES   REMARKS
FERGUS FALLS   CLEAR     59  59 100 S5        29.90F
WHEATON        CLEAR     57  54  88 S3        29.92F
MORRIS         CLEAR     57  57 100 CALM      29.91F
ALEXANDRIA     CLEAR     57  57 100 SW6       29.94S FOG
ELBOW LAKE     FAIR      55  55 100 S6        29.92S
WADENA         CLEAR     57  57 100 CALM      29.90F
GLENWOOD       PTCLDY    59  57  94 W7        29.93S FOG
APPLETON       FOG       57  55  94 CALM      29.92S VSB 1/2
BENSON         FOG       52  52 100 CALM      29.94S VSB 1/4
ORTONVILLE     CLEAR     55  54  94 MISG      29.91F
MADISON        CLEAR     57  57 100 W5        29.93S FOG
WILLMAR        FAIR      57  55  94 CALM      29.93F FOG
$$
MNZ033>034-036-042>043-049>051-058-059-190900-
   Central Minnesota

CITY           SKY/WX    TMP DP  RH WIND       PRES   REMARKS
ST CLOUD       FOG       55  55 100 CALM      29.91S VSB 1/4
SAUK CENTRE    FAIR      56  56 100 CALM      29.93R
PAYNESVILLE    CLEAR     53  53 100 CALM      29.93S FOG
AITKIN         CLEAR     57  55  94 SW5       29.89S
PINE RIVER     FOG       48  48 100 CALM      29.93F VSB 1/2
BRAINERD       CLEAR     56  55  97 S3        29.90F FOG
STAPLES        CLEAR     57  57 100 CALM      29.90F
LONG PRAIRIE   FAIR      55  54  94 S3        29.93S FOG
LITTLE FALLS   FOG       52  50  93 CALM      29.92S VSB 1/2
LITCHFIELD       N/A     59  59 100 CALM      29.92F FOG
BUFFALO        CLEAR     57  55  92 CALM      29.93F
MAPLE LAKE     FOG       56  55  99 CALM      29.93S VSB 1/4
HUTCHINSON     FOG       57  57  99 CALM      29.93F VSB 1/4
$$
MNZ037-044-045-052-053-190900-
   East Central Minnesota

CITY           SKY/WX    TMP DP  RH WIND       PRES   REMARKS
PRINCETON      FOG       55  54  94 CALM      29.91S VSB 1/2
MORA           FOG       54  52  94 CALM      29.92S VSB 1
CAMBRIDGE      CLEAR     59  57  94 CALM      29.91F FOG
RUSH CITY      FOG       55  54  97 CALM      29.91S VSB 3/4
MOOSE LAKE       N/A     50  50 100 CALM      29.88S FOG
HINCKLEY       FAIR      52  52 100 CALM      29.91S FOG
CLOQUET        CLEAR     61  55  82 W7        29.88S
MCGREGOR       CLEAR     55  54  94 CALM      29.89F
$$
MNZ071>073-080-081-089-090-097-098-190900-
   Southwest Minnesota

CITY           SKY/WX    TMP DP  RH WIND       PRES   REMARKS
MONTEVIDEO     MOCLDY    55  55 100 CALM      29.93R FOG
GRANITE FALLS  FOG       56  56 100 SW3       29.94S VSB 1/2
CANBY          CLEAR     58  57  94 CALM      29.94F
MARSHALL       CLEAR     57  57 100 W5        29.94S
REDWOOD FALLS  FOG       59  58  96 CALM      29.92F VSB 1/4
OLIVIA         FOG       54  54 100 CALM      29.92S VSB 1/4
PIPESTONE      CLEAR     61  57  88 CALM      29.95F
WINDOM         PTCLDY    54  52  94 CALM      29.94F
WORTHINGTON    FOG       59  58  96 CALM      29.95F VSB 1/4
JACKSON          N/A     54  54 100 CALM      29.89S FOG
TRACY          FOG       58  58 100 W5        29.94F VSB 1/2
SLAYTON        FOG       58  54  87 CALM      29.95F VSB 1/4
$$
MNZ065>067-074>077-082>085-091>093-190900-
   South Central Minnesota

CITY           SKY/WX    TMP DP  RH WIND       PRES   REMARKS
MANKATO        CLEAR     57  56  96 CALM      29.93F
NEW ULM        FOG       57  57 100 NW7       29.92F VSB 1/4
ST JAMES       CLEAR     55  55 100 SW3       29.94R
FAIRMONT       CLEAR     56  55  97 CALM      29.94S
GLENCOE          N/A     57  57 100 CALM      29.92S FOG
FARIBAULT      FOG       55  54  94 CALM      29.93F VSB 1/2
OWATONNA         N/A     54  54 100 S3        29.94S FOG
WASECA         CLEAR     54  54 100 CALM      29.94S FOG
ALBERT LEA     FOG       59  59 100 CALM      29.94F VSB 1/4
$$
MNZ078>079-086>088-094>096-190900-
   Southeast Minnesota

CITY           SKY/WX    TMP DP  RH WIND       PRES   REMARKS
ROCHESTER      CLEAR     54  54 100 SW6       29.94S
RED WING       CLEAR     57  55  94 CALM      29.91S FOG
STANTON          N/A     55  53  95 CALM      29.92S FOG
DODGE CENTER   CLEAR     54  52  94 CALM      29.95R
WINONA         PTCLDY    55  55 100 CALM      29.93S
AUSTIN         CLOUDY    55  55 100 CALM      29.94S FOG
PRESTON        CLEAR     57  55  94 S3        29.94S FOG
$$
ABBREVIATIONS USED IN REMARKS
   TC - TEMPERATURES IN CELSIUS
  WCI - WIND CHILL INDEX
   HX - HEAT INDEX
  VSB - VISIBILITY
$$




USA.gov is the U.S. government's official web portal to all federal, state and local government web resources and services.